Location: Ailingen
(47.6833°N, 9.5000°E)
Time: 12:09:51
(UTC+00:00)

Cosmos 2026 Rocket - Pass Details

Date: 18 November 2025
Orbit: 938 x 1000 km, 82.9° (Epoch: 11 December)

Event Time Altitude Azimuth Distance (km) Brightness Sun altitude
Rises 18:13:27 0° 350° (N) 3,615 7.1 -25.2°
Reaches altitude 10° 18:15:56 10° 350° (N) 2,670 6.4 -25.7°
Maximum altitude 18:22:03 84° 263° (W) 962 3.9 -26.7°
Drops below altitude 10° 18:28:11 10° 176° (S) 2,686 6.2 -27.7°
Sets 18:30:41 0° 176° (S) 3,637 6.9 -28.1°
